TimeCST,TemperatureF,Dew PointF,Humidity,Sea Level PressureIn,VisibilityMPH,Wind Direction,Wind SpeedMPH,Gust SpeedMPH,PrecipitationIn,Events,Conditions,WindDirDegrees,DateUTC
1:53 AM,34.0,33.1,96,30.08,10.0,Calm,Calm,-,N/A,,Clear,0,2001-01-06 07:53:00
2:53 AM,32.0,32.0,100,30.07,10.0,Calm,Calm,-,N/A,,Clear,0,2001-01-06 08:53:00
5:53 AM,30.9,30.0,96,30.07,9.0,Calm,Calm,-,N/A,,Clear,0,2001-01-06 11:53:00
6:53 AM,30.9,30.0,96,30.07,9.0,Calm,Calm,-,N/A,,Clear,0,2001-01-06 12:53:00
7:53 AM,32.0,30.9,96,30.07,10.0,ESE,4.6,-,N/A,,Clear,110,2001-01-06 13:53:00
9:53 AM,48.9,36.0,61,30.10,10.0,ESE,4.6,-,N/A,,Clear,120,2001-01-06 15:53:00
10:53 AM,57.9,35.1,42,30.08,10.0,SE,11.5,-,N/A,,Clear,130,2001-01-06 16:53:00
11:53 AM,62.1,35.1,37,30.03,10.0,SSE,10.4,-,N/A,,Clear,150,2001-01-06 17:53:00
12:53 PM,66.0,34.0,30,29.99,10.0,Variable,6.9,-,N/A,,Clear,0,2001-01-06 18:53:00
1:53 PM,69.1,36.0,30,29.96,10.0,SSW,6.9,-,N/A,,Clear,200,2001-01-06 19:53:00
2:53 PM,70.0,37.0,30,29.95,10.0,SSW,10.4,-,N/A,,Clear,210,2001-01-06 20:53:00
3:53 PM,69.1,37.9,32,29.92,10.0,South,8.1,-,N/A,,Clear,190,2001-01-06 21:53:00
4:53 PM,66.0,37.0,34,29.92,10.0,South,9.2,-,N/A,,Clear,170,2001-01-06 22:53:00
5:53 PM,60.1,37.9,44,29.91,10.0,South,8.1,-,N/A,,Clear,170,2001-01-06 23:53:00
6:53 PM,53.1,39.0,59,29.91,10.0,SSE,6.9,-,N/A,,Clear,150,2001-01-07 00:53:00
7:53 PM,54.0,42.1,64,29.91,10.0,SSE,6.9,-,N/A,,Clear,160,2001-01-07 01:53:00
8:53 PM,48.9,44.1,83,29.90,10.0,SSE,5.8,-,N/A,,Clear,150,2001-01-07 02:53:00
9:53 PM,50.0,45.0,83,29.91,10.0,SSE,4.6,-,N/A,,Clear,150,2001-01-07 03:53:00
10:53 PM,48.0,46.0,93,29.90,10.0,SE,5.8,-,N/A,,Clear,130,2001-01-07 04:53:00
11:53 PM,45.0,45.0,100,29.89,8.0,SE,4.6,-,N/A,,Clear,130,2001-01-07 05:53:00